Location: Poughquag
(41.6090°N, 73.6820°W)
Time: 04:50:33
(UTC-04:00)

ITUPSAT 1 - Pass Details

Date: 28 June 2024
Orbit: 695 x 705 km, 98.5° (Epoch: 24 July)

Event Time Altitude Azimuth Distance (km) Brightness Sun altitude
Rises 23:31:19 0° 8° (N) 3,107 ? -22.1°
Reaches altitude 10° 23:33:37 10° 4° (N) 2,184 ? -22.3°
Maximum altitude 23:38:16 54° 288° (WNW) 861 ? -22.6°
Enters shadow 23:40:11 32° 228° (SW) 1,194 ? -22.7°
